Back to catalog

STARLINK-34795

AliveCommunicationsVLEO
NORAD 65684·PAYLOAD·🇺🇸 United States

Launched Sep 21, 2025 from Cape Canaveral Space Force Station

Loading…

Next Passes (next 24 hours)

TLE

FreshSource: CelesTrak SupGP

Epoch: Sep 14, 2026, 22:55 UTC

1 65684C 25212J   26257.95534722 -.00044959  00000+0 -13277-2 0  2571
2 65684  53.1583 183.8553 0001343  91.2884 105.1310 15.34427101    12

Track STARLINK-34795 in real time with AllMySat

Download on the App Store